Regional Weather Roundup
Issued by NWS Newport/Morehead, NC

Current Version | Previous Version | Graphics & Text | Print | Product List | Glossary Off
Versions: 1 2 3 4 5 6 7 8 9 10 11 12 13 14 15 16 17 18 19 20 21 22 23 24 25 26 27 28 29 30 31 32 33 34 35 36 37 38 39 40 41 42 43 44 45 46 47 48 49 50

000
ASUS42 KMHX 272313
RWRMHX
WEATHER ROUNDUP FOR EASTERN NORTH CAROLINA
NATIONAL WEATHER SERVICE NEWPORT/MOREHEAD CITY NC
700 PM EDT THU AUG 27 2015

NOTE: "FAIR" INDICATES FEW OR NO CLOUDS BELOW 12,000 FEET
WITH NO SIGNIFICANT WEATHER AND/OR OBSTRUCTIONS TO VISIBILITY

NCZ015>017-031-032-045>047-102-103-280000-
NORTH COAST

CITY           SKY/WX    TMP DP  RH WIND       PRES   REMARKS
EDENTON        CLOUDY    74  65  74 NE3       30.07S
ELIZABETH CITY CLOUDY    75  62  64 NE9       30.07R
KITTY HAWK     CLOUDY    76  62  62 NE8       30.05S
MANTEO         CLOUDY    75  63  65 NE10      30.06R

$$

NCZ045>047-081-094-103-104-280000-
CENTRAL COAST

CITY           SKY/WX    TMP DP  RH WIND       PRES   REMARKS
FRISCO         LGT RAIN  71  70  96 E10       30.04R
SWANQUARTER    NOT AVBL

$$

NCZ095-097-098-100-101-280000-
SOUTHERN COAST

CITY           SKY/WX    TMP DP  RH WIND       PRES   REMARKS
BEAUFORT       LGT RAIN  74  73  97 NE8       30.02S
CEDAR ISLAND   NOT AVBL
JACKSONVILLE   CLOUDY    77  69  76 NE9       30.02S
PINEY ISLAND   MOCLDY   N/A N/A N/A NE14G23   30.02S
WILMINGTON     MOCLDY    78  71  79 N12       30.01S


$$

NCZ011>013-027>030-043-044-078>080-089-090>093-098-280000-
COASTAL PLAIN

CITY           SKY/WX    TMP DP  RH WIND       PRES   REMARKS
AHOSKIE        MOCLDY    74  62  65 CALM      30.07F
CLINTON        MOCLDY    75  66  72 NE6       30.06R
ELIZABETHTOWN  CLOUDY    76  67  74 CALM      30.04S
GOLDSBORO      PTCLDY    76  67  76 E8        30.05R
GREENVILLE     CLOUDY    73  66  78 NE6       30.08S
HAVELOCK       CLOUDY    77  68  73 NE13      30.04S
KENANSVILLE      N/A     73  64  73 N6        30.06S
KINSTON        PTCLDY    75  64  69 NE7       30.07R
NEW BERN       CLOUDY    76  64  66 NE17      30.06R
RICHLANDS      CLOUDY    75  64  69 N10       30.04R
ROCKY MOUNT    MOCLDY    77  62  59 NE6       30.07S
WASHINGTON     DRIZZLE   73  67  84 NE5       30.06S
WHITEVILLE     CLOUDY    75  71  86 NE3       30.03R

$$

AMZ130-135-150-152-154-156-158-170-250-252-270-ANZ085-086-088-633-658-670-280000-
MARINE OBSERVATIONS

STATION/POSITION TIME  TEMP    WIND        PRES    WAVE   SWELL
                       AIR SEA DIR/SP/G            HT/PER HT/PER
                 (UTC) (F)     (DEG/KT/KT) (MB)    (FT/S) (FT/S)
CHESAPEAKE LIGHT 2300   75      50/  9/ 10 1019.1
64 E VA BEACH    2250   77 80   30/ 14/ 16 1017.4    4/ 9   3/ 9
DUCK             2200   76 78   30/ 16/ 18 1016.9
2 E DUCK         2211      78                N/A     4/ 5   2/12
OREGON INLET     2200   77 79   30/ 12/ 17 1017.0
13E OREGON INLT  2300      79                N/A     5/ 6   2/11
HATTERAS CG      2200   73 81   70/  9/ 14 1016.3
DIAMOND BUOY     2250   78 82   80/ 10/ 14 1016.6    5/ 9   5/ 9
CAPE LOOKOUT     2300   77      40/ 17/ 19 1016.0
BEAUFORT LAB     2200   73 81   70/  8/ 19 1016.0
30 SE NEW RVR IN 2208   78 82   60/ 14/ 21 1015.8
30 SE NEW RVR IN 2225      82                N/A     4/ 5   2/11
27 SE WRIGHTSVLE 2200   78 82   70/ 16/ 17   N/A
5 SE WRIGHTSVLE  2208   80 83   50/ 17/ 23 1015.3
225 S CAPE HAT   2250   81 84  150/  8/ 12 1015.7    3/ 9   3/ 9
41 SE CHARLESTON 2250   82 85   20/  2/  4 1014.8    2/10   2/10

$$



USA.gov is the U.S. government's official web portal to all federal, state and local government web resources and services.